Location: Woltersdorf
(52.1552°N, 11.7775°E)
Time: 16:45:23
(UTC+00:00)

Daily predictions for brighter satellites

Satellite Brightness Start Highest point End
(mag) Time Altitude Azimuth Time Altitude Azimuth Time Altitude Azimuth
Cosmos 1703 3.2 20:18:09 10° S 20:22:00 71° E 20:25:54 10° NNE
NOSS 3-4 (A) 4.5 20:16:19 10° NW 20:22:49 51° NNE 20:30:01 10° ESE
NOSS 3-4 (C) 4.5 20:16:26 10° NW 20:22:56 50° NNE 20:30:07 10° ESE
Cosmos 1844 3.9 20:17:16 10° NNW 20:23:03 73° WSW 20:28:45 10° SSE
COSMOS 2428 3.6 20:18:21 10° SSE 20:23:09 29° ESE 20:27:58 10° NE
Cosmos 2322 4.0 20:21:26 10° S 20:26:53 48° ESE 20:32:22 10° NE
CZ-4B DEB 4.4 20:28:51 10° SSE 20:32:12 90° NE 20:35:36 10° NNW
Cosmos 783 Rocket 4.5 20:27:48 10° SSW 20:33:01 73° ESE 20:38:15 10° NNE
Cosmos 1709 Rocket 4.1 20:27:24 10° S 20:33:41 73° E 20:40:03 10° NNE
Terra 2.1 20:32:01 10° SSE 20:36:40 58° ENE 20:41:21 10° N
Cosmos 2237 Rocket 3.8 20:33:44 10° SE 20:37:08 16° E 20:40:31 10° ENE
CARTOSAT-1 3.6 20:33:29 10° SSE 20:37:49 85° ENE 20:42:10 10° NNW
Cosmos 2333 4.3 20:33:10 10° S 20:38:39 56° ESE 20:44:14 10° NE
Cosmos 2219 Rocket 2.6 20:33:54 10° S 20:39:05 41° ESE 20:44:19 10° NE
Cosmos 2360 Rocket 2.3 20:35:16 10° SSW 20:40:56 85° WNW 20:46:39 10° NNE
IGS 5A 4.3 20:37:03 10° S 20:41:05 48° W 20:45:09 10° NNW
Cosmos 2333 Rocket 2.4 20:43:22 10° S 20:48:50 51° ESE 20:54:22 10° NE
Cosmos 1315 Rocket 2.9 20:46:07 10° N 20:50:14 77° ENE 20:54:13 11° SSE
ATLAS 2AS CENTAUR R/B 3.3 20:43:12 10° NW 20:50:55 61° NE 20:57:59 10° ESE
Resurs 01 Rocket 4.0 20:50:02 10° SW 20:53:14 19° W 20:56:28 10° NW
Cosmos-2242 4.1 20:49:28 10° NNW 20:53:36 43° W 20:57:43 10° SSW
Cosmos 1818 3.7 20:50:48 10° SW 20:56:14 84° NW 21:01:44 10° NE
Cosmos 2221 2.9 20:54:21 10° N 20:58:41 55° ENE 21:02:29 13° SSE
Cosmos 773 Rocket 4.0 20:53:34 10° SSW 20:58:52 79° ESE 21:04:11 10° NNE
SL-16 R/B 3.9 20:54:57 10° WSW 21:00:12 37° NW 21:05:28 10° NNE
GEOS 3 Rocket 3.7 20:56:42 10° NE 21:02:08 82° SE 21:07:33 10° SW
ERS-1 Rocket 3.4 20:57:22 10° S 21:02:20 60° WSW 21:07:22 10° NNW
USA 215 3.4 20:59:06 10° ENE 21:05:29 52° SE 21:11:50 10° SW
Cosmos 2278 Rocket 2.3 21:02:22 10° NNW 21:08:05 76° ENE 21:13:09 13° SE
Cosmos 1892 3.8 21:07:01 14° SE 21:09:36 29° E 21:12:56 10° NNE
Cosmos 1844 Rocket 4.2 21:07:47 10° NW 21:12:27 28° WSW 21:17:06 10° SSW
ATLAS 5 CENTAUR R/B 1.9 21:08:36 10° SW 21:12:51 75° NW 21:17:44 10° NE
Meteor 1-11 4.4 21:07:47 10° SSW 21:13:25 78° WNW 21:19:10 10° N
Aureole 2 Rocket 4.5 21:12:53 10° NNE 21:14:31 14° NE 21:16:11 10° E
Cosmos 1943 Rocket 4.1 21:11:10 10° NNW 21:15:41 23° NE 21:20:11 10° E
SPOT 5 3.6 21:14:14 10° S 21:19:06 49° W 21:23:46 10° NNW
Lacrosse 5 rocket 2.7 21:17:10 10° WNW 21:21:09 41° N 21:24:56 10° ENE
SL-16 R/B 4.1 21:18:56 10° SE 21:21:33 14° E 21:24:15 10° ENE
Cosmos 2056 Rocket 4.3 21:17:38 10° NNW 21:22:51 46° ENE 21:27:39 12° SE
Nadezhda 3 Rocket 4.3 21:17:32 10° N 21:23:53 61° ENE 21:29:11 15° SSE
USA 81 4.5 21:21:02 10° SSW 21:26:16 64° W 21:31:33 10° N
Cosmos 2058 3.3 21:25:00 16° SSE 21:28:02 47° E 21:32:02 10° NNE
Cosmos 2154 Rocket 4.4 21:23:04 14° SSE 21:28:11 50° E 21:34:11 10° NNE
Cosmos 1408 3.6 21:29:06 18° SE 21:31:04 29° E 21:34:14 10° NNE
Meteor 2-17 Rocket 4.5 21:27:25 12° S 21:32:56 67° E 21:38:57 10° NNE
In-Cosmos 22 Rocket 4.2 21:29:55 14° S 21:34:27 62° E 21:39:43 10° NNE
TSX-5 3.7 21:31:27 10° NW 21:34:50 66° WSW 21:37:36 19° SSE
Cosmos 2074 Rocket 4.0 21:29:16 10° S 21:35:28 83° E 21:41:43 10° NNE
Cosmos 1076 Rocket 3.7 21:36:09 17° SSE 21:39:15 55° E 21:43:26 10° NNE
Cosmos 1680 Rocket 4.0 21:35:42 15° S 21:39:44 44° ESE 21:44:47 10° NE
USA 267 3.4 21:34:05 13° SE 21:39:58 63° SW 21:46:30 10° WNW
CZ-4C R/B 4.0 21:38:08 10° NW 21:44:13 40° NNE 21:51:22 10° E
Cosmos 1842 Rocket 4.3 21:41:15 10° NNW 21:45:25 46° W 21:49:02 13° SSW
JB-3 4.3 21:42:50 10° NNE 21:46:42 83° WNW 21:49:57 14° SSW
COSMOS 2455 4.0 21:42:23 10° NNW 21:48:06 41° NE 21:53:47 10° ESE
Cosmos 2151 4.0 21:47:18 18° SE 21:49:45 33° E 21:53:37 10° NNE
MTI 4.1 21:47:38 10° N 21:50:42 61° WNW 21:53:10 15° SSW
ATLAS CENTAUR R/B 3.0 21:53:58 10° WNW 21:56:36 19° WSW 21:58:26 13° SSW
Cosmos 923 Rocket 4.0 21:52:20 12° SSW 21:57:11 75° ESE 22:02:30 10° NNE
Cosmos 2327 Rocket 4.5 21:52:15 14° S 21:57:39 84° E 22:03:48 10° N
Cosmos 1825 2.7 21:58:08 22° SSE 22:00:09 43° E 22:03:46 10° NNE
Cosmos 2369 Rocket 3.8 21:55:24 10° NNW 22:00:18 30° NE 22:05:10 10° ESE
Cosmos 1151 Rocket 4.1 21:56:20 10° N 22:00:21 35° ENE 22:03:13 17° SE
ALOS 2 3.2 21:58:03 18° SE 22:01:05 48° ENE 22:05:20 10° N
Cosmos 1980 3.7 21:56:55 12° SSW 22:02:03 66° ESE 22:07:40 10° NE
APEX 4.5 22:00:47 10° N 22:03:03 22° NE 22:05:07 11° E
Cosmos 967 Rocket 4.5 21:57:54 10° SSW 22:04:21 76° SE 22:10:50 10° NE
Cosmos 44 4.4 22:05:15 19° SE 22:06:29 22° ESE 22:09:53 10° ENE
COSMOS 2428 3.2 22:01:28 10° SW 22:07:05 61° NW 22:12:44 10° NNE
Cosmos 371 Rocket 4.0 22:03:15 10° NNW 22:07:59 48° ENE 22:11:47 15° SE
GP-B 3.9 22:04:34 10° NNE 22:08:47 40° E 22:11:23 20° SE
Cosmos 1295 Rocket 4.4 22:06:31 17° S 22:11:21 79° E 22:17:28 10° NNE
Cosmos 1624 Rocket 4.0 22:08:10 10° NNW 22:13:26 81° WSW 22:16:57 21° SSE
NOSS 3-4 (A) 4.0 22:07:16 10° NW 22:14:04 63° SW 22:19:46 18° SSE
NOSS 3-4 (C) 4.0 22:07:22 10° NW 22:14:10 64° SW 22:19:55 18° SSE
NOSS 0 Rocket 3.9 22:08:18 10° SSW 22:14:27 87° ESE 22:20:41 10° NNE
Terra 3.7 22:11:04 10° SW 22:14:47 22° W 22:18:32 10° NW
SL-4 R/B 2.2 22:19:54 20° E 22:20:18 21° ENE 22:21:59 10° NNE
Cosmos 2237 Rocket 2.2 22:14:58 12° SSW 22:20:19 82° ESE 22:26:04 10° NNE
Genesis I 3.4 22:18:36 22° SSW 22:20:53 51° SE 22:24:41 10° NE
CREW DRAGON DEMO-1 DEB 4.4 22:22:53 21° ESE 22:22:53 21° ESE 22:24:26 10° E
Cosmos 2344 3.7 22:16:02 11° SSW 22:23:02 57° ESE 22:30:58 10° NE
Cosmos 2219 Rocket 3.3 22:17:41 10° WSW 22:23:02 45° NW 22:28:27 10° NNE
NOSS 3-3 (A) 4.4 22:19:51 10° WSW 22:25:52 68° NW 22:32:49 10° NE
NOSS 3-3 (C) 4.4 22:19:57 10° WSW 22:25:59 68° NW 22:32:55 10° NE
Thor Agena Rocket 3.6 22:24:10 10° NNE 22:29:19 81° WNW 22:33:18 17° SSW
Cosmos 1346 Rocket 4.5 22:28:04 16° ESE 22:29:46 21° E 22:32:45 10° NE
Cosmos 2333 Rocket 3.6 22:28:00 10° WSW 22:33:18 39° NW 22:38:41 10° NNE
RESURS DK-1 4.2 22:35:07 10° NNW 22:38:43 27° NE 22:42:18 10° ESE
Cosmos 1515 Rocket 4.1 22:36:21 10° N 22:40:37 50° ENE 22:43:15 21° SE
BREEZE-M DEB (TANK) 2.3 22:38:18 10° W 22:41:21 30° SSW 22:41:21 30° SSW
ATLAS 2AS CENTAUR R/B 3.2 22:34:36 10° NW 22:41:50 49° WSW 22:46:25 21° S
EO 1 Del DPAF 3.7 22:38:46 10° N 22:42:28 57° WNW 22:44:59 19° SW
Cosmos 1892 4.4 22:42:00 10° SW 22:45:17 27° WNW 22:48:36 10° N
Cosmos 1766 Rocket 3.5 22:44:24 25° S 22:46:54 79° E 22:51:20 10° NNE
Cosmos 1328 Rocket 3.5 22:43:42 10° N 22:48:03 88° W 22:50:25 26° S
Aureole 2 Rocket 2.6 22:45:36 10° NW 22:48:18 41° WSW 22:48:59 34° SSW
USA 215 3.4 22:42:11 10° ENE 22:48:46 78° NNW 22:55:19 10° WSW
Gbstr 26 Del rocket 4.2 22:49:28 20° SE 22:49:28 20° SE 22:52:10 10° E
Okean 3 Rocket 3.6 22:47:02 24° SSW 22:49:44 86° W 22:54:12 10° N
Cosmos 1606 2.9 22:46:32 10° NNW 22:50:24 64° W 22:52:19 28° S
Cosmos 2278 Rocket 3.8 22:47:17 10° NW 22:51:34 22° WSW 22:54:59 13° SW
Cosmos 2112 Rocket 4.4 22:48:23 12° SW 22:53:20 64° WNW 22:58:41 10° NNE
Cosmos 2297 3.9 22:47:54 10° NW 22:53:36 63° WSW 22:57:11 23° S
Cosmos 304 Rocket 4.2 22:49:41 10° NNW 22:54:29 60° ENE 22:58:04 17° SE
Cosmos 2218 Rocket 4.1 22:50:54 21° S 22:55:17 76° E 23:01:36 10° NNE
Cosmos 2228 Rocket 4.0 22:51:51 10° N 22:56:15 43° ENE 22:59:19 18° SE
Cosmos 1420 Rocket 4.1 22:52:08 10° NNW 22:57:23 67° WSW 23:00:36 24° S
Cosmos 158 Rocket 4.5 22:52:56 11° SW 22:57:32 53° WNW 23:02:22 10° NNE
ATLAS 5 CENTAUR R/B 4.1 22:54:21 10° WNW 22:58:17 27° NNW 23:02:44 10° NE
Cosmos 1943 Rocket 2.2 22:54:37 10° NNW 23:00:21 81° ENE 23:04:40 18° SE
Lacrosse 5 rocket 1.6 22:56:43 10° WNW 23:00:46 66° NNE 23:04:35 10° ESE
Cosmos 2366 rocket 4.1 22:56:35 21° S 23:00:58 79° E 23:07:21 10° NNE
Cosmos 1633 3.3 23:01:11 26° SE 23:02:40 39° E 23:06:05 10° NNE
SL-16 R/B 2.2 23:00:47 21° SSW 23:04:38 71° ESE 23:10:20 10° NE
Cosmos 1408 4.4 23:03:24 11° WSW 23:06:07 24° WNW 23:09:06 10° NNW
Cosmos 1959 Rocket 4.5 23:06:20 21° S 23:10:35 88° W 23:16:51 10° N
YAOGAN 11 4.1 23:09:09 25° SSE 23:11:38 89° SW 23:16:07 10° NNW
Cosmos 1743 Rocket 4.0 23:12:36 25° SSE 23:14:50 50° E 23:19:04 10° NNE
Cosmos 2341 Rocket 4.5 23:11:47 16° SSW 23:16:45 54° WNW 23:22:52 10° N
Cosmos 332 Rocket 3.9 23:14:00 10° NNW 23:18:47 65° WSW 23:21:28 25° S
Meteor 2-3 Rocket 3.7 23:21:02 22° SSW 23:24:46 87° WNW 23:30:32 10° NNE
Helios 1A 3.3 23:24:53 27° SSW 23:26:56 52° W 23:31:02 10° NNW
Cosmos 2151 4.4 23:23:52 13° SW 23:27:04 30° WNW 23:30:53 10° N
Cosmos 405 2.9 23:24:04 10° NNW 23:27:38 77° WSW 23:29:07 32° S
Cosmos 1452 Rocket 3.8 23:27:01 10° NNW 23:32:07 52° WSW 23:35:06 24° S
CZ-4C R/B 3.0 23:26:41 10° NW 23:33:38 85° NE 23:41:48 10° SE
Meteor 2-6 Rocket 4.2 23:28:32 10° N 23:34:05 76° ENE 23:37:54 20° SSE
Cosmos 389 Rocket 4.4 23:31:19 10° N 23:34:17 24° ENE 23:37:05 11° ESE
PSLV R/B 3.8 23:30:10 10° NNE 23:34:20 55° E 23:36:34 25° S
COSMOS 2455 3.0 23:28:23 10° NW 23:34:20 60° WSW 23:38:24 21° SSE
Cosmos 1825 4.3 23:33:04 10° WSW 23:35:53 20° WNW 23:38:43 10° NNW
Cosmos 1110 Rocket 4.1 23:30:51 10° NNW 23:36:10 81° ENE 23:40:16 17° SSE
Cosmos 1340 3.2 23:34:23 23° SW 23:36:25 50° WNW 23:40:07 10° N
ALOS 2 4.2 23:35:27 16° SW 23:37:40 23° W 23:41:12 10° NW
Cosmos 1151 Rocket 4.3 23:34:04 10° NNW 23:37:50 29° W 23:40:03 18° SW
Cosmos 1408 Rocket 4.0 23:35:56 22° SW 23:38:34 55° WNW 23:42:56 10° N
SL-16 R/B 3.8 23:33:22 10° SE 23:39:02 38° ENE 23:44:45 10° N
Cosmos 1603 4.4 23:36:25 21° SSE 23:39:42 42° ESE 23:45:03 10° NE
Cosmos 1727 Rocket 4.3 23:37:51 10° NNW 23:43:55 56° W 23:48:04 21° SSW
APEX 3.9 23:42:14 10° WNW 23:44:22 21° WSW 23:44:22 21° WSW
Resurs 1-4 Rocket 4.0 23:40:40 10° NE 23:44:31 20° E 23:48:23 10° SE
Cosmos 2369 Rocket 2.2 23:39:15 10° NW 23:44:50 71° WSW 23:48:49 20° SSE
Cosmos 44 3.3 23:43:38 14° SW 23:47:16 66° NW 23:51:45 10° NE
Cosmos 1500 Rocket 3.5 23:44:49 26° SSW 23:47:19 85° W 23:51:44 10° N
Cosmos 371 Rocket 4.5 23:44:03 10° NW 23:48:12 28° WSW 23:50:25 20° SW
SeaSat 1 4.1 23:44:45 10° NE 23:48:36 22° ESE 23:51:20 15° SSE
ISS -1.5 23:51:00 12° SE 23:51:00 12° SE 23:51:58 10° ESE
Helios 1B rocket 2.5 23:49:00 10° NNE 23:53:09 70° ESE 23:55:23 26° S
